RH
79 65 71 79 92 94 96 98 100 88 65 46 62 64 63 60 53 46 35 29 28 26 23 23 19 21 21 14 13 13 15 12 9 11 8 11 13 12 12 12 12 12 12 18 29
93 70 63 78 69 81 99 89 90 94 94 67 53 66 68 63 56 41 31 34 35 34 29 22 16 17 19 16 13 12 12 10 8 9 9 11 13 13 15 14 14 14 14 24 27
95 91 58 91 86 74 75 94 90 85 89 92 64 64 68 61 41 22 39 33 34 34 36 24 20 16 18 17 15 12 11 9 11 9 10 10 13 13 14 15 15 14 15 16 21
81 75 68 72 95 92 86 76 94 98 90 100 84 67 74 63 28 33 38 32 34 48 38 27 21 21 19 20 15 17 12 10 10 9 12 13 11 15 14 14 14 14 14 15 18
75 70 74 71 68 75 79 80 72 96 99 100 98 74 75 51 34 36 37 40 35 36 28 26 24 20 20 17 16 22 12 12 13 12 12 12 16 14 15 12 13 14 16 18 16
79 83 82 76 70 65 62 69 82 76 94 98 100 84 62 51 32 38 38 38 34 31 27 27 25 20 21 18 20 16 17 14 16 17 16 21 17 17 16 12 15 16 16 16 17
86 80 80 81 72 62 59 58 67 85 82 96 100 96 63 44 40 42 46 35 38 32 26 26 29 27 23 23 19 22 23 19 21 22 20 18 22 18 14 13 15 15 14 14 16
91 88 86 73 68 69 70 64 61 73 86 90 100 100 91 52 46 42 44 47 47 42 35 30 32 31 28 24 28 28 24 23 14 15 20 24 18 11 10 14 16 15 14 17 18
76 86 89 80 72 71 68 64 61 75 86 93 100 100 87 59 55 47 40 34 36 37 34 34 32 30 32 36 30 28 26 21 18 14 17 22 16 11 10 15 15 16 15 18 21
76 76 85 88 78 72 58 50 62 87 74 96 100 97 79 62 52 50 44 35 30 28 32 34 34 35 35 35 36 26 28 28 22 16 22 19 20 13 16 16 17 15 16 19 22
77 71 80 88 78 66 63 64 59 60 71 52 70 70 45 49 48 46 39 38 31 27 31 31 41 40 30 30 29 24 23 25 19 16 25 25 19 16 15 15 18 17 16 18 22
79 72 78 87 78 69 72 52 49 87 81 46 42 58 47 45 48 40 42 41 40 36 25 28 44 25 23 24 32 36 34 29 21 19 29 26 22 16 15 14 16 16 15 16 22
77 80 81 85 76 71 65 53 72 77 72 43 44 36 56 44 56 43 38 34 39 38 28 28 24 24 23 27 35 38 36 29 27 23 29 32 28 19 15 14 15 16 16 14 18
76 82 79 79 69 72 64 85 80 88 73 46 42 44 39 49 64 40 38 36 36 36 32 26 19 20 27 31 30 40 26 27 29 34 41 20 27 15 10 9 11 15 17 15 19
77 84 74 70 69 66 73 76 60 74 76 23 28 32 36 57 35 45 40 41 43 37 32 34 26 26 25 32 28 32 25 25 30 38 37 32 31 22 14 14 14 18 20 21 23
78 79 81 79 80 68 76 68 58 92 74 33 34 57 61 64 48 31 43 39 38 47 36 30 20 22 22 20 24 26 31 32 30 36 50 33 29 22 14 13 14 14 14 20 21
74 84 83 77 59 81 77 60 73 91 37 50 55 49 60 73 68 48 58 69 70 82 93 49 37 23 22 27 23 32 39 49 53 52 52 22 26 23 13 13 12 13 18 20 23
69 78 83 80 82 83 66 70 83 52 59 54 59 55 66 57 60 66 55 66 60 54 48 56 53 34 24 30 29 31 39 45 58 42 33 24 30 18 12 12 13 13 15 19 29
72 90 89 89 86 87 78 92 64 47 32 32 50 88 87 58 56 67 72 60 51 49 51 43 44 22 26 25 28 30 44 33 41 32 42 25 20 16 14 14 20 18 20 27 34
84 77 60 80 96 81 92 79 67 36 30 43 88 78 81 65 81 82 73 58 45 35 34 37 42 26 26 26 27 31 26 57 57 93 75 40 26 20 14 14 19 22 24 28 32
82 94 68 89 89 83 88 67 57 36 29 46 56 90 81 78 98 77 59 47 47 39 34 39 40 37 25 36 36 36 37 41 46 57 69 57 41 24 20 16 24 24 23 28 32
95 97 93 87 97 87 84 61 46 38 30 38 37 42 64 64 84 84 99 44 32 41 52 44 50 66 40 25 27 29 36 41 80 88 70 66 58 23 23 18 17 21 21 24 30
100 90 99 80 89 89 86 82 56 51 38 40 45 38 44 70 94 81 85 75 75 81 52 46 70 89 62 42 35 40 37 35 51 85 90 90 67 26 22 27 24 24 21 27 32
100 97 100 99 75 71 78 80 76 50 48 40 46 40 46 62 54 85 66 46 60 71 72 84 76 71 74 50 40 62 44 39 50 84 71 70 46 30 24 24 27 30 28 30 34
99 96 71 95 96 81 65 69 76 78 51 44 51 52 58 75 66 69 48 36 34 42 65 97 100 84 61 43 35 43 45 44 45 53 66 47 38 31 26 22 23 28 29 29 32
100 99 70 56 53 73 71 82 75 61 56 62 64 52 50 67 57 75 54 49 51 32 60 85 98 85 89 51 44 44 34 37 42 42 43 39 39 27 24 21 26 26 27 28 30
99 81 87 65 66 66 69 69 63 51 53 49 49 55 62 55 44 44 44 49 60 79 74 87 94 97 94 70 67 80 59 42 38 38 41 50 39 31 29 29 29 28 26 27 29
Wind_Speed
9 10 11 11 10 13 16 14 12 13 13 13 13 12 13 15 18 13 17 11 9 9 10 10 8 7 7 7 7 5 7 11 13 10 5 5 9 4 3 6 4 4 3 4 3
12 10 9 11 12 12 11 15 16 14 14 13 13 11 11 12 14 19 19 19 20 22 16 13 11 10 9 9 7 12 11 15 7 9 7 6 7 4 6 7 7 8 6 3 5
11 12 9 6 10 13 13 12 15 17 15 13 12 11 9 7 12 6 7 11 9 11 18 14 13 12 14 10 12 11 17 14 10 12 9 12 9 6 10 12 10 9 5 7 11
14 13 11 9 8 9 12 13 11 16 17 14 12 10 6 3 7 6 10 7 15 4 9 12 13 16 14 16 16 13 16 14 11 10 11 14 13 12 13 13 7 9 11 12 13
14 13 11 10 10 10 10 11 14 13 16 14 13 12 5 9 12 3 9 6 6 3 1 11 14 16 17 12 16 18 18 11 14 14 15 14 17 18 21 14 15 13 12 14 15
12 11 11 11 11 12 12 11 12 15 11 15 15 14 11 21 7 16 17 15 11 7 6 7 7 12 13 16 15 4 17 18 14 14 15 15 18 11 22 10 10 10 12 13 16
12 10 10 12 12 12 12 12 12 11 16 10 15 20 16 20 5 6 7 12 8 10 9 8 10 10 4 14 15 14 19 18 15 15 16 15 21 23 25 18 15 12 11 11 14
12 11 10 10 10 10 11 12 11 11 11 12 9 19 8 7 28 24 11 4 3 3 7 9 7 11 15 8 9 12 18 19 18 20 19 11 19 18 17 14 15 10 9 7 10
12 12 10 9 8 9 12 12 11 9 9 8 8 8 6 6 17 19 25 19 8 7 6 7 8 13 10 16 15 16 17 19 17 15 13 19 18 20 18 16 16 11 7 6 8
11 11 10 8 7 9 12 11 9 5 7 6 7 4 8 5 7 14 25 22 16 14 9 10 9 13 15 15 20 20 17 18 18 6 14 19 21 16 10 14 15 13 8 8 10
10 7 8 7 6 9 11 3 4 5 14 13 9 11 5 14 6 16 19 23 17 14 23 15 13 25 31 25 22 22 15 21 18 13 12 19 21 18 18 20 19 19 15 11 12
10 7 6 5 5 8 8 3 4 7 8 23 24 22 24 15 7 10 18 15 19 27 21 20 26 30 25 24 22 23 23 24 20 16 13 20 26 24 22 24 22 21 18 16 14
10 7 4 3 6 7 6 8 12 8 6 13 22 28 21 14 7 14 19 15 20 22 29 29 34 24 24 25 24 27 28 24 22 14 14 17 29 29 26 29 24 23 22 21 18
7 5 4 4 4 3 6 3 8 6 5 12 18 21 29 25 16 23 23 11 12 22 24 27 35 28 25 28 27 28 26 24 21 17 18 12 22 27 19 20 19 19 22 22 18
6 5 4 5 2 5 1 6 10 5 6 9 26 5 19 29 16 30 30 19 21 15 20 26 22 28 31 29 25 29 24 22 20 20 20 26 15 31 20 23 21 15 18 18 19
8 7 6 5 8 7 6 8 4 6 11 6 7 18 21 25 31 11 29 29 22 18 17 33 21 22 35 31 23 18 18 13 18 15 18 32 19 32 23 25 18 18 20 20 19
10 8 8 7 3 6 5 4 6 12 1 6 9 14 25 22 25 31 26 27 18 17 15 30 30 25 20 23 28 24 17 13 13 14 21 13 17 30 7 14 14 22 19 17 18
7 9 8 9 8 6 2 6 13 5 24 4 6 19 18 23 24 26 25 25 30 26 20 25 23 32 29 34 26 32 28 15 21 20 23 20 16 24 16 18 19 21 17 16 18
9 8 6 8 11 9 5 9 8 15 11 21 11 7 13 21 15 22 27 29 32 33 26 24 34 22 30 32 26 31 24 34 24 18 11 16 24 33 28 20 10 15 15 18 21
8 7 10 10 14 13 6 10 8 19 19 11 9 7 4 19 19 18 20 18 33 37 34 29 24 28 23 22 32 30 24 20 15 10 22 22 30 25 19 21 19 20 20 19 19
5 2 5 15 13 6 11 11 15 18 16 11 17 8 10 13 7 21 16 20 31 27 33 34 25 26 24 27 31 23 26 20 18 16 14 20 20 34 26 22 18 22 22 19 20
3 4 10 21 7 4 12 6 10 13 12 18 20 21 20 20 14 9 5 19 20 33 30 36 15 26 30 24 29 32 30 29 13 15 20 22 22 18 6 13 19 23 23 19 18
2 3 8 19 8 11 6 5 16 15 15 11 15 18 16 13 5 9 8 4 19 19 23 26 17 21 20 26 18 25 28 30 28 8 20 18 21 23 24 12 12 17 18 15 16
3 4 3 5 10 15 14 15 14 13 18 20 21 19 21 20 18 12 19 14 11 20 27 17 19 22 25 26 26 21 30 31 29 19 22 23 31 31 11 16 15 14 14 16 17
5 5 7 5 11 18 14 7 13 12 14 14 11 19 20 16 13 16 23 29 24 22 11 9 9 26 32 31 29 33 31 36 35 34 29 32 36 41 28 19 15 14 13 16 18
4 3 5 11 12 19 20 18 21 21 18 14 18 19 18 18 18 17 21 17 19 11 13 5 10 22 25 32 34 35 31 32 37 38 36 38 37 41 24 23 20 15 17 19 20
6 8 3 9 16 16 17 21 21 22 19 24 22 19 19 25 21 20 18 18 18 18 12 12 6 7 21 31 29 24 30 35 36 34 37 34 40 37 27 19 21 19 20 21 21
Wind_Direction
308 297 290 284 274 260 260 266 277 275 270 268 271 280 293 304 309 302 272 254 266 278 279 287 261 228 217 207 213 233 241 244 235 234 215 165 210 187 306 257 208 199 254 73 142
314 310 303 283 283 276 267 256 265 274 274 268 267 271 289 309 306 287 273 274 270 259 262 255 247 215 221 220 201 215 231 243 252 249 254 197 235 192 238 197 215 218 200 201 195
311 310 306 294 291 283 277 265 251 258 268 270 264 263 275 320 285 260 128 65 27 240 237 248 246 232 235 221 211 215 241 238 240 247 266 261 238 229 248 242 239 225 224 225 232
304 309 307 301 290 279 280 270 265 251 251 262 256 252 251 221 250 131 161 54 29 106 196 225 220 217 228 223 225 246 235 252 240 244 245 252 275 253 256 264 254 262 276 276 237
299 301 303 302 295 296 294 289 267 271 244 248 244 228 204 221 236 214 207 319 350 53 208 223 230 224 234 235 237 236 249 230 245 246 248 262 259 271 268 268 264 273 265 256 249
293 302 303 303 302 299 297 299 292 262 269 240 236 210 221 243 246 238 259 272 276 263 274 236 240 245 279 253 236 253 251 251 236 235 236 244 252 252 262 249 263 262 261 249 248
280 289 296 299 302 305 303 297 295 287 259 263 241 200 227 235 218 209 246 254 248 257 252 240 266 241 253 258 251 262 257 250 230 236 238 245 253 244 255 264 268 265 258 258 252
269 277 279 300 317 312 305 298 292 285 271 262 245 198 236 252 239 246 237 274 216 223 242 244 228 251 253 272 245 241 240 253 243 232 226 225 255 240 244 241 234 249 267 259 246
270 270 271 293 317 315 308 298 284 269 284 254 207 189 248 205 220 230 234 230 218 243 246 243 230 227 220 237 247 226 251 233 252 227 233 220 249 246 244 222 235 223 239 254 248
256 265 261 283 310 323 318 297 283 252 244 237 243 147 241 208 209 228 222 220 222 233 235 227 226 221 222 223 230 232 230 250 246 200 231 240 244 254 205 216 221 231 227 231 235
258 264 254 261 306 331 343 321 208 209 220 209 187 225 113 216 185 220 201 200 203 214 219 196 215 223 221 221 245 257 253 252 252 250 283 259 260 254 244 235 231 243 241 231 228
251 264 249 246 298 320 331 276 322 9 283 225 246 225 241 180 179 185 180 183 192 211 208 215 226 230 234 237 231 243 247 249 256 263 283 274 271 267 255 250 246 243 240 234 224
254 246 229 239 298 302 276 274 320 334 267 251 227 233 209 198 204 185 192 199 198 212 208 214 231 227 234 229 231 231 235 244 253 249 249 281 280 261 252 250 243 246 244 246 224
246 239 231 230 264 228 243 246 327 304 265 249 218 233 217 218 238 215 203 190 207 218 217 227 236 234 224 230 221 239 232 248 257 254 254 236 273 274 267 261 246 227 238 234 211
247 233 236 212 183 214 45 311 318 207 246 200 210 198 204 200 216 210 204 216 228 205 198 224 226 227 231 226 224 242 246 246 238 244 257 251 262 266 268 260 243 231 232 221 212
233 233 215 219 234 241 283 303 287 209 228 227 184 200 186 203 218 216 202 215 220 240 222 241 230 220 229 232 230 237 235 238 237 237 243 244 242 270 257 258 241 244 239 221 209
235 222 217 212 249 216 227 230 220 231 213 213 195 203 206 199 216 217 191 199 200 189 196 236 238 237 228 232 225 214 211 219 220 216 238 237 224 247 237 295 254 235 234 223 204
232 234 224 218 196 169 222 205 225 229 245 42 296 210 215 217 213 211 207 204 208 199 206 224 225 216 213 221 211 213 213 219 223 231 242 226 243 246 235 258 263 250 238 214 197
217 220 211 206 201 195 203 212 232 243 268 252 262 318 226 216 230 207 224 222 205 218 214 222 233 228 217 219 221 220 213 224 248 275 280 259 236 250 257 250 243 234 228 198 198
189 214 213 195 189 182 211 234 233 236 259 307 285 208 271 224 205 204 199 220 228 218 227 238 249 221 215 220 222 227 214 220 226 218 236 244 254 263 250 254 217 227 219 210 196
178 215 183 177 161 197 230 224 234 246 258 244 264 284 297 284 280 218 204 218 208 224 221 234 240 251 230 205 211 210 222 213 219 219 235 249 250 253 256 252 218 222 218 206 194
179 214 163 160 188 208 234 229 262 259 255 253 263 264 267 285 292 276 298 241 207 213 215 224 233 245 235 220 221 221 212 211 214 208 222 230 253 244 300 263 231 227 219 201 193
205 209 175 183 219 223 220 240 248 253 251 244 247 258 258 273 282 328 348 315 323 353 227 221 220 239 242 246 220 221 217 219 213 225 219 214 241 244 250 231 236 228 213 199 188
177 196 173 224 235 241 233 234 236 243 252 249 257 266 272 270 264 281 289 289 297 306 317 310 237 214 231 220 222 234 227 220 214 218 224 216 238 243 240 238 228 222 201 190 187
193 229 196 199 225 224 231 236 228 234 236 241 246 243 253 266 261 254 263 272 277 274 295 315 240 219 240 240 247 221 222 224 225 218 221 228 231 247 233 228 221 204 186 185 187
192 204 225 249 231 221 233 233 239 246 242 246 249 263 262 264 264 265 265 273 275 262 280 304 299 234 240 243 239 244 240 226 229 228 230 235 243 248 241 240 217 201 191 195 194
191 237 260 247 237 244 240 233 244 250 251 246 254 261 262 255 275 276 276 279 268 278 262 257 253 305 235 237 244 247 237 240 232 232 231 233 235 245 239 225 214 196 195 198 194